Total_Precipitation_Accumulation
6.89 7.53 8.33 7.50 4.24 3.28 3.30 3.37 2.92 2.39 2.16 1.95 2.16 1.61 1.24 0.94 0.40 0.27 0.21 0.16 0.28 0.35 0.27 0.33 0.29 0.26 0.26 0.13 0.18 0.35 0.32 0.40
3.59 3.72 7.19 11.78 7.98 5.02 4.13 3.79 3.59 2.59 2.39 1.75 1.31 1.54 1.53 1.36 0.54 0.25 0.20 0.16 0.29 0.41 0.56 0.62 0.42 0.34 0.39 0.23 0.24 0.33 0.30 0.26
1.88 2.59 3.36 5.96 9.66 6.51 5.17 4.19 2.77 2.60 2.23 1.68 1.18 0.95 0.88 0.82 0.47 0.29 0.24 0.26 0.39 0.53 0.49 0.52 0.65 0.42 0.38 0.39 0.22 0.23 0.19 0.13
1.84 1.27 1.32 1.96 4.35 4.17 4.51 4.56 2.70 2.16 1.78 1.29 1.12 0.94 0.55 0.40 0.28 0.24 0.40 0.34 0.36 0.33 0.37 0.39 0.48 0.35 0.27 0.21 0.19 0.17 0.09 0.07
1.27 1.16 0.93 1.08 2.16 1.84 2.30 3.08 3.35 2.28 1.97 1.23 1.22 0.84 0.52 0.49 0.29 0.31 0.62 0.40 0.14 0.16 0.14 0.16 0.24 0.29 0.25 0.11 0.08 0.12 0.04 0.02
0.91 0.51 0.66 0.99 0.96 1.13 1.41 1.43 3.07 2.83 2.18 1.63 1.33 0.85 0.37 0.32 0.23 0.23 0.21 0.38 0.18 0.09 0.11 0.16 0.20 0.23 0.25 0.20 0.17 0.23 0.12 0.02
0.81 0.67 0.64 0.58 0.38 0.48 1.15 0.96 1.74 2.79 2.25 1.78 1.30 0.78 0.34 0.19 0.17 0.21 0.15 0.23 0.31 0.26 0.17 0.19 0.20 0.27 0.20 0.20 0.40 0.41 0.36 0.26
0.66 0.63 0.65 0.53 0.38 0.37 0.83 0.86 0.99 2.10 1.72 1.22 1.32 0.64 0.29 0.24 0.25 0.16 0.21 0.21 0.23 0.40 0.35 0.20 0.16 0.20 0.33 0.26 0.32 0.32 0.31 0.33
0.47 0.69 0.73 0.69 0.48 0.55 0.73 0.83 0.86 1.33 1.12 1.12 1.34 0.70 0.46 0.36 0.30 0.25 0.16 0.18 0.16 0.18 0.30 0.48 0.47 0.37 0.24 0.20 0.32 0.22 0.18 0.15
0.64 0.86 1.18 1.11 0.46 0.58 0.67 0.72 0.79 1.03 0.88 1.00 1.40 0.74 0.47 0.34 0.29 0.28 0.24 0.16 0.12 0.07 0.07 0.24 0.35 0.31 0.22 0.14 0.12 0.09 0.13 0.14
0.59 0.92 1.09 1.33 1.20 1.45 1.21 0.85 0.75 0.82 0.68 0.83 1.47 0.95 0.67 0.31 0.23 0.24 0.21 0.16 0.07 0.02 0.07 0.06 0.14 0.20 0.23 0.13 0.03 0.03 0.11 0.17
0.67 1.07 1.58 2.74 1.92 1.10 0.62 0.61 0.64 0.69 0.76 0.74 1.32 0.86 0.76 0.79 0.43 0.31 0.26 0.16 0.08 0.02 0.05 0.06 0.03 0.07 0.19 0.27 0.13 0.04 0.07 0.16
0.75 0.83 0.94 0.82 0.38 0.34 0.35 0.47 0.66 0.75 0.87 0.63 1.18 0.98 0.62 0.88 0.98 0.46 0.39 0.18 0.06 0.03 0.06 0.07 0.06 0.04 0.18 0.24 0.23 0.12 0.12 0.11
0.23 0.09 0.06 0.10 0.11 0.15 0.17 0.20 0.42 0.49 1.08 0.77 0.81 0.89 0.35 0.41 0.67 0.61 0.44 0.21 0.12 0.09 0.10 0.09 0.07 0.04 0.09 0.10 0.20 0.12 0.07 0.08
0.05 0.04 0.03 0.03 0.06 0.09 0.17 0.17 0.26 0.37 1.04 1.12 0.76 0.74 0.48 0.27 0.36 0.45 0.47 0.33 0.23 0.09 0.09 0.10 0.07 0.06 0.06 0.04 0.09 0.12 0.07 0.03
0.06 0.10 0.05 0.05 0.03 0.04 0.06 0.09 0.11 0.19 0.43 0.68 0.78 0.60 0.55 0.36 0.34 0.41 0.53 0.38 0.28 0.16 0.16 0.18 0.17 0.13 0.12 0.10 0.04 0.05 0.15 0.14
0.10 0.09 0.11 0.12 0.07 0.08 0.09 0.10 0.18 0.20 0.31 0.62 0.71 0.74 0.67 0.64 0.57 0.59 0.51 0.62 0.39 0.29 0.29 0.33 0.23 0.16 0.11 0.12 0.06 0.04 0.04 0.10
0.08 0.12 0.16 0.19 0.18 0.14 0.18 0.24 0.17 0.15 0.24 0.66 0.78 0.79 0.79 0.71 0.71 0.79 0.69 0.57 0.73 0.49 0.46 0.43 0.33 0.26 0.26 0.25 0.28 0.30 0.28 0.35
0.16 0.17 0.20 0.21 0.19 0.28 0.21 0.19 0.16 0.10 0.10 0.19 0.57 0.91 0.85 0.83 0.69 0.77 0.76 0.61 0.68 0.69 0.57 0.54 0.53 0.64 0.77 0.92 0.95 0.87 0.81 0.78
0.28 0.31 0.25 0.26 0.27 0.32 0.32 0.21 0.19 0.19 0.09 0.13 0.17 0.48 0.64 1.01 0.91 0.82 0.94 0.78 0.89 1.16 1.25 1.21 1.20 1.31 1.29 1.14 0.98 0.90 0.86 0.80